Time,TemperatureF,DewpointF,PressureIn,WindDirection,WindDirectionDegrees,WindSpeedMPH,WindSpeedGustMPH,Humidity,HourlyPrecipIn,Conditions,Clouds,dailyrainin,SoftwareType,DateUTC
2013-11-18 00:00:00,40.2,39.2,30.04,ENE,74,1.0,1.0,96,0.08,,,0.00,Wunderground v.1.15,2013-11-18 05:00:00,
2013-11-18 00:05:00,39.9,38.9,30.03,NE,49,2.0,2.0,96,0.11,,,0.01,Wunderground v.1.15,2013-11-18 05:05:00,
2013-11-18 00:15:00,39.6,38.6,30.03,ENE,71,1.0,1.0,96,0.07,,,0.02,Wunderground v.1.15,2013-11-18 05:15:00,
2013-11-18 00:20:00,39.6,38.6,30.02,East,82,1.0,1.0,96,0.07,,,0.02,Wunderground v.1.15,2013-11-18 05:20:00,
2013-11-18 00:25:00,39.7,38.7,30.01,East,82,1.0,1.0,96,0.08,,,0.03,Wunderground v.1.15,2013-11-18 05:25:00,
2013-11-18 00:30:00,39.8,38.8,30.01,East,82,1.0,1.0,96,0.07,,,0.03,Wunderground v.1.15,2013-11-18 05:30:00,
2013-11-18 00:35:00,40.0,39.0,30.01,East,82,0.0,2.0,96,0.04,,,0.04,Wunderground v.1.15,2013-11-18 05:35:00,
2013-11-18 00:40:00,40.1,39.1,30.00,East,82,0.0,0.0,96,0.04,,,0.04,Wunderground v.1.15,2013-11-18 05:40:00,
2013-11-18 00:45:00,40.2,39.2,29.99,East,82,0.0,1.0,96,0.04,,,0.04,Wunderground v.1.15,2013-11-18 05:45:00,
2013-11-18 00:50:00,40.5,39.4,29.99,East,84,1.0,1.0,96,0.04,,,0.05,Wunderground v.1.15,2013-11-18 05:50:00,
2013-11-18 00:55:00,40.7,39.6,29.99,East,84,1.0,1.0,96,0.04,,,0.05,Wunderground v.1.15,2013-11-18 05:55:00,
2013-11-18 01:00:00,40.7,39.6,29.98,East,84,1.0,1.0,96,0.04,,,0.05,Wunderground v.1.15,2013-11-18 06:00:00,
2013-11-18 01:05:00,40.6,39.5,29.98,East,84,0.0,1.0,96,0.04,,,0.05,Wunderground v.1.15,2013-11-18 06:05:00,
2013-11-18 01:10:00,40.4,39.4,29.98,East,84,0.0,0.0,96,0.00,,,0.05,Wunderground v.1.15,2013-11-18 06:10:00,
2013-11-18 01:15:00,40.5,39.4,29.98,East,84,0.0,0.0,96,0.00,,,0.05,Wunderground v.1.15,2013-11-18 06:15:00,
2013-11-18 01:25:00,40.3,39.3,29.97,East,84,0.0,0.0,96,0.00,,,0.06,Wunderground v.1.15,2013-11-18 06:25:00,
2013-11-18 01:30:00,40.1,39.1,29.97,East,85,0.0,0.0,96,0.05,,,0.07,Wunderground v.1.15,2013-11-18 06:30:00,
2013-11-18 01:35:00,40.0,39.0,29.96,East,85,0.0,0.0,96,0.05,,,0.07,Wunderground v.1.15,2013-11-18 06:35:00,
2013-11-18 01:40:00,40.2,39.2,29.95,East,85,0.0,1.0,96,0.05,,,0.08,Wunderground v.1.15,2013-11-18 06:40:00,
2013-11-18 01:45:00,40.4,39.4,29.95,East,85,1.0,2.0,96,0.05,,,0.08,Wunderground v.1.15,2013-11-18 06:45:00,
2013-11-18 01:50:00,40.6,39.5,29.94,East,79,1.0,1.0,96,0.06,,,0.09,Wunderground v.1.15,2013-11-18 06:50:00,
2013-11-18 02:00:00,40.6,39.5,29.93,ENE,74,1.0,1.0,96,0.05,,,0.09,Wunderground v.1.15,2013-11-18 07:00:00,
2013-11-18 02:05:00,40.6,39.5,29.93,ENE,74,1.0,1.0,96,0.05,,,0.10,Wunderground v.1.15,2013-11-18 07:05:00,
2013-11-18 02:10:00,40.5,39.4,29.93,ENE,74,0.0,0.0,96,0.05,,,0.10,Wunderground v.1.15,2013-11-18 07:10:00,
2013-11-18 02:15:00,40.2,39.2,29.92,ENE,74,0.0,0.0,96,0.04,,,0.10,Wunderground v.1.15,2013-11-18 07:15:00,
2013-11-18 02:20:00,40.2,39.2,29.91,ENE,74,0.0,2.0,96,0.04,,,0.11,Wunderground v.1.15,2013-11-18 07:20:00,
2013-11-18 02:30:00,40.6,39.5,29.90,East,84,1.0,1.0,96,0.04,,,0.11,Wunderground v.1.15,2013-11-18 07:30:00,
2013-11-18 02:35:00,40.4,39.4,29.89,East,88,1.0,1.0,96,0.04,,,0.12,Wunderground v.1.15,2013-11-18 07:35:00,
2013-11-18 02:40:00,40.6,39.5,29.88,ESE,103,0.0,0.0,96,0.04,,,0.12,Wunderground v.1.15,2013-11-18 07:40:00,
2013-11-18 02:45:00,40.3,39.3,29.88,WSW,244,1.0,3.0,96,0.05,,,0.13,Wunderground v.1.15,2013-11-18 07:45:00,
2013-11-18 02:50:00,40.0,39.0,29.88,WSW,244,1.0,2.0,96,0.05,,,0.13,Wunderground v.1.15,2013-11-18 07:50:00,
2013-11-18 02:55:00,39.8,38.8,29.87,WSW,244,1.0,2.0,96,0.05,,,0.13,Wunderground v.1.15,2013-11-18 07:55:00,
2013-11-18 03:00:00,39.8,38.8,29.87,WSW,244,1.0,1.0,96,0.04,,,0.13,Wunderground v.1.15,2013-11-18 08:00:00,
2013-11-18 03:05:00,39.7,38.7,29.86,WSW,244,1.0,1.0,96,0.00,,,0.13,Wunderground v.1.15,2013-11-18 08:05:00,
2013-11-18 03:10:00,39.7,38.7,29.84,WSW,244,1.0,1.0,96,0.00,,,0.13,Wunderground v.1.15,2013-11-18 08:10:00,
2013-11-18 03:15:00,39.8,38.8,29.83,South,182,1.0,1.0,96,0.00,,,0.13,Wunderground v.1.15,2013-11-18 08:15:00,
2013-11-18 03:20:00,40.0,39.0,29.84,SW,227,1.0,1.0,96,0.00,,,0.13,Wunderground v.1.15,2013-11-18 08:20:00,
2013-11-18 03:30:00,40.0,39.0,29.82,SSE,160,0.0,1.0,96,0.00,,,0.13,Wunderground v.1.15,2013-11-18 08:30:00,
2013-11-18 03:40:00,40.0,39.0,29.82,WSW,238,1.0,1.0,96,0.00,,,0.13,Wunderground v.1.15,2013-11-18 08:40:00,
2013-11-18 03:45:00,39.9,38.9,29.82,WSW,238,1.0,1.0,96,0.00,,,0.14,Wunderground v.1.15,2013-11-18 08:45:00,
2013-11-18 03:50:00,39.9,38.9,29.81,WSW,238,0.0,0.0,96,0.00,,,0.14,Wunderground v.1.15,2013-11-18 08:50:00,
2013-11-18 03:55:00,40.0,39.2,29.81,SW,232,1.0,3.0,97,0.00,,,0.14,Wunderground v.1.15,2013-11-18 08:55:00,
2013-11-18 04:00:00,40.1,39.1,29.81,WSW,237,1.0,1.0,96,0.00,,,0.14,Wunderground v.1.15,2013-11-18 09:00:00,
2013-11-18 04:05:00,40.2,39.2,29.80,SE,124,1.0,1.0,96,0.17,,,0.16,Wunderground v.1.15,2013-11-18 09:05:00,
2013-11-18 04:10:00,40.2,39.2,29.79,ESE,121,1.0,1.0,96,0.18,,,0.18,Wunderground v.1.15,2013-11-18 09:10:00,
2013-11-18 04:15:00,40.9,40.1,29.78,West,279,2.0,2.0,97,0.07,,,0.18,Wunderground v.1.15,2013-11-18 09:15:00,
2013-11-18 04:25:00,40.6,39.8,29.78,SSW,211,1.0,4.0,97,0.00,,,0.18,Wunderground v.1.15,2013-11-18 09:25:00,
2013-11-18 04:30:00,40.5,39.7,29.77,SW,232,2.0,2.0,97,0.00,,,0.19,Wunderground v.1.15,2013-11-18 09:30:00,
2013-11-18 04:35:00,40.5,39.7,29.76,SSE,165,1.0,2.0,97,0.00,,,0.19,Wunderground v.1.15,2013-11-18 09:35:00,
2013-11-18 04:45:00,40.4,39.6,29.75,SW,218,0.0,1.0,97,0.00,,,0.19,Wunderground v.1.15,2013-11-18 09:45:00,
2013-11-18 04:50:00,40.6,39.8,29.74,SSE,147,0.0,1.0,97,0.00,,,0.19,Wunderground v.1.15,2013-11-18 09:50:00,
2013-11-18 04:55:00,41.0,40.2,29.73,WSW,249,1.0,3.0,97,0.00,,,0.19,Wunderground v.1.15,2013-11-18 09:55:00,
2013-11-18 05:00:00,41.4,40.6,29.73,SSE,148,1.0,1.0,97,0.00,,,0.19,Wunderground v.1.15,2013-11-18 10:00:00,
2013-11-18 05:05:00,42.3,41.5,29.73,NNW,327,1.0,2.0,97,0.00,,,0.19,Wunderground v.1.15,2013-11-18 10:05:00,
2013-11-18 05:10:00,41.7,40.9,29.72,NNE,17,1.0,2.0,97,0.00,,,0.19,Wunderground v.1.15,2013-11-18 10:10:00,
2013-11-18 05:15:00,41.4,40.6,29.71,ESE,109,2.0,3.0,97,0.00,,,0.19,Wunderground v.1.15,2013-11-18 10:15:00,
2013-11-18 05:25:00,48.0,47.2,29.69,SE,130,3.0,3.0,97,0.00,,,0.19,Wunderground v.1.15,2013-11-18 10:25:00,
2013-11-18 05:30:00,50.2,49.4,29.68,NE,42,3.0,3.0,97,0.00,,,0.19,Wunderground v.1.15,2013-11-18 10:30:00,
2013-11-18 05:35:00,50.8,50.0,29.68,North,349,2.0,6.0,97,0.00,,,0.19,Wunderground v.1.15,2013-11-18 10:35:00,
2013-11-18 05:40:00,51.4,50.6,29.67,NE,51,3.0,5.0,97,0.00,,,0.20,Wunderground v.1.15,2013-11-18 10:40:00,
2013-11-18 05:45:00,52.4,51.6,29.67,SE,139,3.0,5.0,97,0.00,,,0.20,Wunderground v.1.15,2013-11-18 10:45:00,
2013-11-18 05:55:00,54.2,53.4,29.65,SE,144,7.0,12.0,97,0.12,,,0.22,Wunderground v.1.15,2013-11-18 10:55:00,
2013-11-18 06:00:00,54.5,53.7,29.65,SSW,198,6.0,6.0,97,0.09,,,0.23,Wunderground v.1.15,2013-11-18 11:00:00,
2013-11-18 06:05:00,54.8,54.0,29.64,SSE,152,6.0,6.0,97,0.62,,,0.26,Wunderground v.1.15,2013-11-18 11:05:00,
2013-11-18 06:10:00,55.0,54.2,29.64,SSE,163,7.0,16.0,97,0.21,,,0.28,Wunderground v.1.15,2013-11-18 11:10:00,
2013-11-18 06:15:00,55.2,54.4,29.62,SE,142,7.0,16.0,97,0.25,,,0.30,Wunderground v.1.15,2013-11-18 11:15:00,
2013-11-18 06:20:00,55.4,54.6,29.62,SSW,198,5.0,5.0,97,0.17,,,0.32,Wunderground v.1.15,2013-11-18 11:20:00,
2013-11-18 06:25:00,55.6,54.8,29.61,SSE,150,4.0,5.0,97,0.11,,,0.32,Wunderground v.1.15,2013-11-18 11:25:00,
2013-11-18 06:30:00,55.8,55.0,29.61,SE,134,5.0,7.0,97,0.10,,,0.33,Wunderground v.1.15,2013-11-18 11:30:00,
2013-11-18 06:35:00,56.1,55.3,29.61,South,170,6.0,7.0,97,0.07,,,0.33,Wunderground v.1.15,2013-11-18 11:35:00,
2013-11-18 06:40:00,56.2,55.4,29.61,WNW,294,7.0,7.0,97,0.06,,,0.34,Wunderground v.1.15,2013-11-18 11:40:00,
2013-11-18 06:50:00,55.9,55.1,29.60,WSW,238,4.0,4.0,97,0.04,,,0.34,Wunderground v.1.15,2013-11-18 11:50:00,
2013-11-18 06:55:00,55.6,54.8,29.61,NW,311,3.0,4.0,97,0.04,,,0.35,Wunderground v.1.15,2013-11-18 11:55:00,
2013-11-18 07:00:00,56.1,55.3,29.60,WSW,252,5.0,5.0,97,0.08,,,0.36,Wunderground v.1.15,2013-11-18 12:00:00,
2013-11-18 07:05:00,55.9,55.1,29.63,West,276,7.0,17.0,97,0.32,,,0.38,Wunderground v.1.15,2013-11-18 12:05:00,
2013-11-18 07:50:00,53.8,51.5,29.63,SW,226,10.0,10.0,92,0.00,,,0.45,Wunderground v.1.15,2013-11-18 12:50:00,
2013-11-18 07:55:00,53.7,51.4,29.62,West,265,9.0,11.0,92,0.00,,,0.45,Wunderground v.1.15,2013-11-18 12:55:00,
2013-11-18 08:00:00,53.9,51.3,29.63,NW,318,9.0,9.0,91,0.00,,,0.45,Wunderground v.1.15,2013-11-18 13:00:00,
2013-11-18 08:05:00,54.1,50.9,29.63,SW,227,10.0,10.0,89,0.00,,,0.45,Wunderground v.1.15,2013-11-18 13:05:00,
2013-11-18 08:10:00,54.0,50.8,29.61,SW,233,8.0,10.0,89,0.00,,,0.45,Wunderground v.1.15,2013-11-18 13:10:00,
2013-11-18 08:15:00,53.8,50.3,29.61,SSW,212,6.0,10.0,88,0.00,,,0.45,Wunderground v.1.15,2013-11-18 13:15:00,
2013-11-18 08:20:00,53.7,49.9,29.61,SW,224,5.0,5.0,87,0.00,,,0.45,Wunderground v.1.15,2013-11-18 13:20:00,
2013-11-18 08:25:00,53.8,49.7,29.61,SSW,209,5.0,5.0,86,0.00,,,0.45,Wunderground v.1.15,2013-11-18 13:25:00,
2013-11-18 08:30:00,53.9,48.9,29.62,WSW,239,8.0,13.0,83,0.00,,,0.45,Wunderground v.1.15,2013-11-18 13:30:00,
2013-11-18 08:35:00,53.7,48.0,29.63,WSW,242,10.0,13.0,81,0.00,,,0.45,Wunderground v.1.15,2013-11-18 13:35:00,
2013-11-18 08:40:00,53.5,47.5,29.61,West,269,12.0,12.0,80,0.00,,,0.45,Wunderground v.1.15,2013-11-18 13:40:00,
2013-11-18 08:50:00,52.2,47.8,29.60,SW,220,9.0,9.0,85,0.00,,,0.46,Wunderground v.1.15,2013-11-18 13:50:00,
2013-11-18 08:55:00,51.9,47.5,29.61,WSW,238,9.0,12.0,85,0.00,,,0.46,Wunderground v.1.15,2013-11-18 13:55:00,
2013-11-18 09:00:00,51.8,47.7,29.61,SSW,200,9.0,9.0,86,0.00,,,0.46,Wunderground v.1.15,2013-11-18 14:00:00,
2013-11-18 09:05:00,51.9,47.2,29.62,SW,234,10.0,10.0,84,0.00,,,0.46,Wunderground v.1.15,2013-11-18 14:05:00,
2013-11-18 09:10:00,52.3,47.3,29.61,WSW,250,11.0,11.0,83,0.00,,,0.46,Wunderground v.1.15,2013-11-18 14:10:00,
2013-11-18 09:15:00,52.3,47.0,29.61,WSW,238,11.0,11.0,82,0.00,,,0.46,Wunderground v.1.15,2013-11-18 14:15:00,
2013-11-18 09:20:00,52.4,47.1,29.61,SW,215,10.0,13.0,82,0.00,,,0.46,Wunderground v.1.15,2013-11-18 14:20:00,
2013-11-18 09:25:00,52.4,46.7,29.62,WSW,251,10.0,18.0,81,0.00,,,0.46,Wunderground v.1.15,2013-11-18 14:25:00,
2013-11-18 09:30:00,52.7,46.7,29.62,West,259,10.0,11.0,80,0.00,,,0.46,Wunderground v.1.15,2013-11-18 14:30:00,
2013-11-18 09:35:00,53.1,46.8,29.63,SW,229,11.0,16.0,79,0.00,,,0.46,Wunderground v.1.15,2013-11-18 14:35:00,
2013-11-18 09:40:00,53.3,46.6,29.62,West,269,11.0,15.0,78,0.00,,,0.46,Wunderground v.1.15,2013-11-18 14:40:00,
2013-11-18 09:45:00,53.4,46.4,29.62,West,279,11.0,15.0,77,0.00,,,0.46,Wunderground v.1.15,2013-11-18 14:45:00,
2013-11-18 09:50:00,53.6,46.2,29.63,WSW,248,10.0,10.0,76,0.00,,,0.46,Wunderground v.1.15,2013-11-18 14:50:00,
2013-11-18 10:00:00,54.1,46.0,29.63,WSW,250,10.0,10.0,74,0.00,,,0.46,Wunderground v.1.15,2013-11-18 15:00:00,
2013-11-18 10:10:00,54.4,46.3,29.63,WSW,239,11.0,14.0,74,0.00,,,0.46,Wunderground v.1.15,2013-11-18 15:10:00,
2013-11-18 10:15:00,54.4,45.9,29.63,SW,218,11.0,14.0,73,0.00,,,0.46,Wunderground v.1.15,2013-11-18 15:15:00,
2013-11-18 10:20:00,54.4,45.9,29.63,WNW,297,10.0,18.0,73,0.00,,,0.46,Wunderground v.1.15,2013-11-18 15:20:00,
2013-11-18 10:25:00,54.3,45.8,29.63,West,277,11.0,18.0,73,0.00,,,0.46,Wunderground v.1.15,2013-11-18 15:25:00,
2013-11-18 10:30:00,54.4,45.9,29.62,South,188,12.0,12.0,73,0.00,,,0.46,Wunderground v.1.15,2013-11-18 15:30:00,
2013-11-18 10:35:00,54.8,46.3,29.62,WSW,237,10.0,12.0,73,0.00,,,0.46,Wunderground v.1.15,2013-11-18 15:35:00,
2013-11-18 10:45:00,54.8,45.9,29.62,SW,227,10.0,10.0,72,0.00,,,0.46,Wunderground v.1.15,2013-11-18 15:45:00,
2013-11-18 10:50:00,55.0,46.1,29.62,WSW,244,11.0,11.0,72,0.00,,,0.46,Wunderground v.1.15,2013-11-18 15:50:00,
2013-11-18 10:55:00,55.1,46.2,29.61,WSW,238,9.0,11.0,72,0.00,,,0.46,Wunderground v.1.15,2013-11-18 15:55:00,
2013-11-18 11:00:00,55.0,45.4,29.60,WSW,248,10.0,15.0,70,0.00,,,0.46,Wunderground v.1.15,2013-11-18 16:00:00,
2013-11-18 11:05:00,55.2,45.2,29.60,WSW,250,13.0,18.0,69,0.00,,,0.46,Wunderground v.1.15,2013-11-18 16:05:00,
2013-11-18 11:10:00,55.1,45.1,29.61,West,279,14.0,14.0,69,0.00,,,0.46,Wunderground v.1.15,2013-11-18 16:10:00,
2013-11-18 11:15:00,55.0,45.0,29.61,WNW,290,13.0,14.0,69,0.00,,,0.46,Wunderground v.1.15,2013-11-18 16:15:00,
2013-11-18 11:20:00,55.1,44.7,29.61,WSW,238,12.0,12.0,68,0.00,,,0.46,Wunderground v.1.15,2013-11-18 16:20:00,
2013-11-18 11:30:00,55.1,44.7,29.61,WSW,238,12.0,18.0,68,0.00,,,0.46,Wunderground v.1.15,2013-11-18 16:30:00,
2013-11-18 11:35:00,54.9,44.1,29.62,WSW,244,11.0,18.0,67,0.00,,,0.46,Wunderground v.1.15,2013-11-18 16:35:00,
2013-11-18 11:40:00,54.8,44.4,29.62,WNW,284,11.0,11.0,68,0.00,,,0.46,Wunderground v.1.15,2013-11-18 16:40:00,
2013-11-18 11:50:00,55.1,44.3,29.62,West,259,12.0,19.0,67,0.00,,,0.46,Wunderground v.1.15,2013-11-18 16:50:00,
2013-11-18 11:55:00,55.8,44.6,29.62,NW,310,11.0,26.0,66,0.00,,,0.46,Wunderground v.1.15,2013-11-18 16:55:00,
2013-11-18 12:00:00,55.6,43.2,29.62,WNW,284,11.0,11.0,63,0.00,,,0.46,Wunderground v.1.15,2013-11-18 17:00:00,
2013-11-18 12:05:00,55.2,42.4,29.62,WNW,289,12.0,12.0,62,0.00,,,0.46,Wunderground v.1.15,2013-11-18 17:05:00,
2013-11-18 12:10:00,55.2,42.8,29.61,WSW,248,12.0,12.0,63,0.00,,,0.46,Wunderground v.1.15,2013-11-18 17:10:00,
2013-11-18 12:15:00,55.5,42.7,29.61,West,271,11.0,16.0,62,0.00,,,0.46,Wunderground v.1.15,2013-11-18 17:15:00,
2013-11-18 12:25:00,55.7,42.0,29.61,WNW,282,11.0,12.0,60,0.00,,,0.46,Wunderground v.1.15,2013-11-18 17:25:00,
2013-11-18 12:30:00,55.8,41.7,29.62,WSW,237,10.0,10.0,59,0.00,,,0.46,Wunderground v.1.15,2013-11-18 17:30:00,
2013-11-18 12:35:00,55.8,41.2,29.61,West,275,10.0,12.0,58,0.00,,,0.46,Wunderground v.1.15,2013-11-18 17:35:00,
2013-11-18 12:40:00,56.1,42.0,29.61,West,267,10.0,10.0,59,0.00,,,0.46,Wunderground v.1.15,2013-11-18 17:40:00,
2013-11-18 12:45:00,56.4,41.8,29.61,WNW,288,10.0,11.0,58,0.00,,,0.46,Wunderground v.1.15,2013-11-18 17:45:00,
2013-11-18 12:50:00,56.2,41.6,29.61,SW,227,11.0,13.0,58,0.00,,,0.46,Wunderground v.1.15,2013-11-18 17:50:00,
2013-11-18 12:55:00,56.4,42.2,29.61,WSW,248,12.0,16.0,59,0.00,,,0.46,Wunderground v.1.15,2013-11-18 17:55:00,
2013-11-18 13:00:00,56.4,41.8,29.61,SW,230,11.0,17.0,58,0.00,,,0.46,Wunderground v.1.15,2013-11-18 18:00:00,
2013-11-18 13:05:00,56.3,42.1,29.61,WNW,294,12.0,20.0,59,0.00,,,0.46,Wunderground v.1.15,2013-11-18 18:05:00,
2013-11-18 13:10:00,56.4,42.2,29.62,West,261,12.0,12.0,59,0.00,,,0.46,Wunderground v.1.15,2013-11-18 18:10:00,
2013-11-18 13:15:00,56.5,41.4,29.62,West,277,10.0,12.0,57,0.00,,,0.46,Wunderground v.1.15,2013-11-18 18:15:00,
2013-11-18 13:20:00,56.3,41.7,29.61,West,273,11.0,11.0,58,0.00,,,0.46,Wunderground v.1.15,2013-11-18 18:20:00,
2013-11-18 13:25:00,56.6,42.0,29.62,West,278,11.0,11.0,58,0.00,,,0.46,Wunderground v.1.15,2013-11-18 18:25:00,
2013-11-18 13:30:00,56.8,41.3,29.62,SW,224,8.0,10.0,56,0.00,,,0.46,Wunderground v.1.15,2013-11-18 18:30:00,
2013-11-18 13:40:00,56.3,39.4,29.62,WSW,247,12.0,14.0,53,0.00,,,0.46,Wunderground v.1.15,2013-11-18 18:40:00,
2013-11-18 13:45:00,56.4,39.5,29.62,WSW,248,11.0,14.0,53,0.00,,,0.46,Wunderground v.1.15,2013-11-18 18:45:00,
2013-11-18 13:50:00,56.4,39.5,29.63,WNW,301,10.0,10.0,53,0.00,,,0.46,Wunderground v.1.15,2013-11-18 18:50:00,
2013-11-18 13:55:00,56.5,39.6,29.63,WNW,294,10.0,11.0,53,0.00,,,0.46,Wunderground v.1.15,2013-11-18 18:55:00,
2013-11-18 14:00:00,56.7,39.3,29.63,WNW,284,8.0,8.0,52,0.00,,,0.46,Wunderground v.1.15,2013-11-18 19:00:00,
2013-11-18 14:10:00,56.8,38.9,29.64,WSW,237,7.0,7.0,51,0.00,,,0.46,Wunderground v.1.15,2013-11-18 19:10:00,
2013-11-18 14:15:00,56.8,38.3,29.64,West,259,7.0,10.0,50,0.00,,,0.46,Wunderground v.1.15,2013-11-18 19:15:00,
2013-11-18 14:20:00,56.6,38.7,29.64,WSW,238,8.0,8.0,51,0.00,,,0.46,Wunderground v.1.15,2013-11-18 19:20:00,
2013-11-18 14:25:00,56.6,39.2,29.63,WSW,238,9.0,13.0,52,0.00,,,0.46,Wunderground v.1.15,2013-11-18 19:25:00,
2013-11-18 14:30:00,56.7,39.3,29.64,WSW,256,8.0,19.0,52,0.00,,,0.46,Wunderground v.1.15,2013-11-18 19:30:00,
2013-11-18 14:35:00,56.5,39.1,29.64,SW,219,9.0,19.0,52,0.00,,,0.46,Wunderground v.1.15,2013-11-18 19:35:00,
2013-11-18 14:40:00,56.5,39.1,29.64,SW,234,10.0,10.0,52,0.00,,,0.46,Wunderground v.1.15,2013-11-18 19:40:00,
2013-11-18 14:45:00,56.6,39.2,29.64,SW,227,8.0,10.0,52,0.00,,,0.46,Wunderground v.1.15,2013-11-18 19:45:00,
2013-11-18 14:55:00,56.8,38.9,29.64,WSW,254,7.0,10.0,51,0.00,,,0.46,Wunderground v.1.15,2013-11-18 19:55:00,
2013-11-18 15:00:00,56.8,38.9,29.64,West,270,7.0,7.0,51,0.00,,,0.46,Wunderground v.1.15,2013-11-18 20:00:00,
2013-11-18 15:05:00,56.6,38.7,29.64,WSW,242,7.0,7.0,51,0.00,,,0.46,Wunderground v.1.15,2013-11-18 20:05:00,
2013-11-18 15:10:00,56.4,38.0,29.64,West,281,8.0,18.0,50,0.00,,,0.46,Wunderground v.1.15,2013-11-18 20:10:00,
2013-11-18 15:15:00,56.2,37.8,29.64,SW,227,10.0,18.0,50,0.00,,,0.46,Wunderground v.1.15,2013-11-18 20:15:00,
2013-11-18 15:20:00,56.0,37.1,29.64,WSW,250,11.0,11.0,49,0.00,,,0.46,Wunderground v.1.15,2013-11-18 20:20:00,
2013-11-18 15:25:00,55.8,37.4,29.64,WNW,289,10.0,14.0,50,0.00,,,0.46,Wunderground v.1.15,2013-11-18 20:25:00,
2013-11-18 15:30:00,55.6,37.2,29.65,WSW,249,9.0,9.0,50,0.00,,,0.46,Wunderground v.1.15,2013-11-18 20:30:00,
2013-11-18 15:35:00,55.4,37.6,29.64,WSW,248,9.0,9.0,51,0.00,,,0.46,Wunderground v.1.15,2013-11-18 20:35:00,
2013-11-18 15:40:00,55.2,37.4,29.65,SW,226,9.0,9.0,51,0.00,,,0.46,Wunderground v.1.15,2013-11-18 20:40:00,
2013-11-18 15:45:00,54.7,37.4,29.65,West,261,9.0,9.0,52,0.00,,,0.46,Wunderground v.1.15,2013-11-18 20:45:00,
2013-11-18 15:50:00,54.4,37.1,29.65,SSW,210,9.0,14.0,52,0.00,,,0.46,Wunderground v.1.15,2013-11-18 20:50:00,
2013-11-18 15:55:00,54.4,37.1,29.65,WSW,244,9.0,14.0,52,0.00,,,0.46,Wunderground v.1.15,2013-11-18 20:55:00,
2013-11-18 16:00:00,54.1,37.3,29.66,WNW,289,8.0,8.0,53,0.00,,,0.46,Wunderground v.1.15,2013-11-18 21:00:00,
2013-11-18 16:10:00,53.5,37.7,29.66,SW,232,6.0,6.0,55,0.00,,,0.46,Wunderground v.1.15,2013-11-18 21:10:00,
2013-11-18 16:15:00,53.5,38.2,29.66,West,272,7.0,9.0,56,0.00,,,0.46,Wunderground v.1.15,2013-11-18 21:15:00,
2013-11-18 16:20:00,53.3,38.0,29.66,SW,225,7.0,7.0,56,0.00,,,0.46,Wunderground v.1.15,2013-11-18 21:20:00,
2013-11-18 16:25:00,53.1,38.3,29.66,WSW,238,7.0,7.0,57,0.00,,,0.46,Wunderground v.1.15,2013-11-18 21:25:00,
2013-11-18 16:35:00,52.8,38.0,29.67,West,265,6.0,6.0,57,0.00,,,0.46,Wunderground v.1.15,2013-11-18 21:35:00,
2013-11-18 16:40:00,52.6,37.8,29.67,WSW,253,6.0,6.0,57,0.00,,,0.46,Wunderground v.1.15,2013-11-18 21:40:00,
2013-11-18 16:45:00,52.7,37.4,29.68,West,281,6.0,6.0,56,0.00,,,0.46,Wunderground v.1.15,2013-11-18 21:45:00,
2013-11-18 16:50:00,52.6,37.8,29.68,SW,236,6.0,6.0,57,0.00,,,0.46,Wunderground v.1.15,2013-11-18 21:50:00,
2013-11-18 16:55:00,52.5,37.7,29.68,WSW,257,6.0,9.0,57,0.00,,,0.46,Wunderground v.1.15,2013-11-18 21:55:00,
2013-11-18 17:00:00,52.3,37.5,29.68,WNW,292,6.0,12.0,57,0.00,,,0.46,Wunderground v.1.15,2013-11-18 22:00:00,
2013-11-18 17:10:00,51.9,37.1,29.69,WSW,250,7.0,10.0,57,0.00,,,0.46,Wunderground v.1.15,2013-11-18 22:10:00,
2013-11-18 17:15:00,51.7,37.4,29.69,WSW,257,7.0,10.0,58,0.00,,,0.46,Wunderground v.1.15,2013-11-18 22:15:00,
2013-11-18 17:20:00,51.6,37.3,29.68,SSW,192,8.0,8.0,58,0.00,,,0.46,Wunderground v.1.15,2013-11-18 22:20:00,
2013-11-18 17:25:00,51.3,37.0,29.69,SW,230,7.0,8.0,58,0.00,,,0.46,Wunderground v.1.15,2013-11-18 22:25:00,
2013-11-18 17:30:00,51.2,36.5,29.69,WSW,257,7.0,7.0,57,0.00,,,0.46,Wunderground v.1.15,2013-11-18 22:30:00,
2013-11-18 17:35:00,51.0,36.3,29.69,West,264,7.0,7.0,57,0.00,,,0.46,Wunderground v.1.15,2013-11-18 22:35:00,
2013-11-18 17:40:00,50.9,36.2,29.69,WSW,240,6.0,6.0,57,0.00,,,0.46,Wunderground v.1.15,2013-11-18 22:40:00,
2013-11-18 17:45:00,50.8,36.5,29.69,WSW,238,6.0,6.0,58,0.00,,,0.46,Wunderground v.1.15,2013-11-18 22:45:00,
2013-11-18 17:50:00,50.8,36.1,29.69,WNW,292,5.0,5.0,57,0.00,,,0.46,Wunderground v.1.15,2013-11-18 22:50:00,
2013-11-18 17:55:00,50.7,36.0,29.69,WNW,284,5.0,5.0,57,0.00,,,0.46,Wunderground v.1.15,2013-11-18 22:55:00,
2013-11-18 18:00:00,50.5,35.4,29.69,SSW,196,5.0,5.0,56,0.00,,,0.46,Wunderground v.1.15,2013-11-18 23:00:00,
2013-11-18 18:05:00,50.4,35.3,29.69,SW,218,5.0,7.0,56,0.00,,,0.46,Wunderground v.1.15,2013-11-18 23:05:00,
2013-11-18 18:10:00,50.5,34.9,29.68,SW,225,5.0,5.0,55,0.00,,,0.46,Wunderground v.1.15,2013-11-18 23:10:00,
2013-11-18 18:15:00,50.3,34.7,29.68,WSW,256,6.0,6.0,55,0.00,,,0.46,Wunderground v.1.15,2013-11-18 23:15:00,
2013-11-18 18:20:00,50.2,34.6,29.68,WSW,244,5.0,5.0,55,0.00,,,0.46,Wunderground v.1.15,2013-11-18 23:20:00,
2013-11-18 18:25:00,50.0,34.9,29.68,WSW,244,5.0,7.0,56,0.00,,,0.46,Wunderground v.1.15,2013-11-18 23:25:00,
2013-11-18 18:35:00,49.7,35.1,29.68,SW,236,5.0,5.0,57,0.00,,,0.46,Wunderground v.1.15,2013-11-18 23:35:00,
2013-11-18 18:40:00,49.7,34.6,29.68,WSW,253,5.0,5.0,56,0.00,,,0.46,Wunderground v.1.15,2013-11-18 23:40:00,
2013-11-18 18:45:00,49.7,34.6,29.68,WSW,238,5.0,5.0,56,0.00,,,0.46,Wunderground v.1.15,2013-11-18 23:45:00,
2013-11-18 18:55:00,49.6,34.5,29.68,West,272,5.0,9.0,56,0.00,,,0.46,Wunderground v.1.15,2013-11-18 23:55:00,
2013-11-18 19:00:00,49.4,34.3,29.69,WSW,256,5.0,10.0,56,0.00,,,0.46,Wunderground v.1.15,2013-11-19 00:00:00,
2013-11-18 19:05:00,49.4,34.3,29.69,SW,227,6.0,10.0,56,0.00,,,0.46,Wunderground v.1.15,2013-11-19 00:05:00,
2013-11-18 19:10:00,49.4,33.9,29.69,WSW,252,9.0,9.0,55,0.00,,,0.46,Wunderground v.1.15,2013-11-19 00:10:00,
2013-11-18 19:15:00,49.1,33.6,29.69,West,275,9.0,10.0,55,0.00,,,0.46,Wunderground v.1.15,2013-11-19 00:15:00,
2013-11-18 19:20:00,48.8,33.8,29.69,West,272,7.0,11.0,56,0.00,,,0.46,Wunderground v.1.15,2013-11-19 00:20:00,
2013-11-18 19:25:00,48.7,33.7,29.69,West,275,7.0,11.0,56,0.00,,,0.46,Wunderground v.1.15,2013-11-19 00:25:00,
2013-11-18 19:30:00,48.7,33.7,29.69,SSW,205,9.0,9.0,56,0.00,,,0.46,Wunderground v.1.15,2013-11-19 00:30:00,
2013-11-18 19:35:00,48.5,33.9,29.69,WSW,240,9.0,9.0,57,0.00,,,0.46,Wunderground v.1.15,2013-11-19 00:35:00,
2013-11-18 19:40:00,48.2,33.7,29.69,WSW,247,7.0,7.0,57,0.00,,,0.46,Wunderground v.1.15,2013-11-19 00:40:00,
2013-11-18 19:45:00,48.1,34.0,29.69,WSW,242,6.0,9.0,58,0.00,,,0.46,Wunderground v.1.15,2013-11-19 00:45:00,
2013-11-18 19:50:00,48.2,34.1,29.69,WSW,246,7.0,7.0,58,0.00,,,0.46,Wunderground v.1.15,2013-11-19 00:50:00,
2013-11-18 19:55:00,48.1,34.0,29.69,WSW,238,7.0,8.0,58,0.00,,,0.46,Wunderground v.1.15,2013-11-19 00:55:00,
2013-11-18 20:00:00,48.0,34.3,29.69,West,279,8.0,8.0,59,0.00,,,0.46,Wunderground v.1.15,2013-11-19 01:00:00,
2013-11-18 20:05:00,47.8,34.6,29.69,West,264,9.0,9.0,60,0.00,,,0.46,Wunderground v.1.15,2013-11-19 01:05:00,
2013-11-18 20:10:00,47.7,34.5,29.69,SW,234,8.0,8.0,60,0.00,,,0.46,Wunderground v.1.15,2013-11-19 01:10:00,
2013-11-18 20:15:00,47.4,34.6,29.69,WSW,244,7.0,8.0,61,0.00,,,0.46,Wunderground v.1.15,2013-11-19 01:15:00,
2013-11-18 20:20:00,47.4,34.6,29.68,SSW,203,7.0,7.0,61,0.00,,,0.46,Wunderground v.1.15,2013-11-19 01:20:00,
2013-11-18 20:25:00,47.3,34.5,29.68,WSW,241,8.0,8.0,61,0.00,,,0.46,Wunderground v.1.15,2013-11-19 01:25:00,
2013-11-18 20:30:00,47.5,34.7,29.68,WSW,254,9.0,9.0,61,0.00,,,0.46,Wunderground v.1.15,2013-11-19 01:30:00,
2013-11-18 20:35:00,47.7,34.5,29.68,West,275,9.0,9.0,60,0.00,,,0.46,Wunderground v.1.15,2013-11-19 01:35:00,
2013-11-18 20:40:00,47.6,34.8,29.68,SW,236,8.0,13.0,61,0.00,,,0.46,Wunderground v.1.15,2013-11-19 01:40:00,
2013-11-18 20:45:00,47.3,34.5,29.68,WSW,238,7.0,13.0,61,0.00,,,0.46,Wunderground v.1.15,2013-11-19 01:45:00,
2013-11-18 20:50:00,47.3,34.5,29.68,WSW,255,7.0,7.0,61,0.00,,,0.46,Wunderground v.1.15,2013-11-19 01:50:00,
2013-11-18 20:55:00,47.3,34.5,29.68,SW,234,7.0,7.0,61,0.00,,,0.46,Wunderground v.1.15,2013-11-19 01:55:00,
2013-11-18 21:00:00,47.1,34.3,29.68,WSW,237,7.0,7.0,61,0.00,,,0.46,Wunderground v.1.15,2013-11-19 02:00:00,
2013-11-18 21:05:00,47.1,34.7,29.68,West,279,7.0,7.0,62,0.00,,,0.46,Wunderground v.1.15,2013-11-19 02:05:00,
2013-11-18 21:10:00,47.0,34.6,29.69,WSW,242,8.0,8.0,62,0.00,,,0.46,Wunderground v.1.15,2013-11-19 02:10:00,
2013-11-18 21:15:00,46.8,34.5,29.68,SW,230,8.0,8.0,62,0.00,,,0.46,Wunderground v.1.15,2013-11-19 02:15:00,
2013-11-18 21:20:00,46.9,33.7,29.68,SW,214,7.0,7.0,60,0.00,,,0.46,Wunderground v.1.15,2013-11-19 02:20:00,
2013-11-18 21:25:00,47.1,33.1,29.68,West,262,7.0,7.0,58,0.00,,,0.46,Wunderground v.1.15,2013-11-19 02:25:00,
2013-11-18 21:30:00,46.9,33.3,29.68,SW,226,7.0,7.0,59,0.00,,,0.46,Wunderground v.1.15,2013-11-19 02:30:00,
2013-11-18 21:35:00,46.8,33.2,29.68,WSW,256,6.0,7.0,59,0.00,,,0.46,Wunderground v.1.15,2013-11-19 02:35:00,
2013-11-18 21:40:00,46.7,33.1,29.68,WSW,238,7.0,11.0,59,0.00,,,0.46,Wunderground v.1.15,2013-11-19 02:40:00,
2013-11-18 21:50:00,46.6,32.6,29.68,WNW,296,10.0,13.0,58,0.00,,,0.46,Wunderground v.1.15,2013-11-19 02:50:00,
2013-11-18 21:55:00,46.4,32.4,29.68,WSW,246,8.0,13.0,58,0.00,,,0.46,Wunderground v.1.15,2013-11-19 02:55:00,
2013-11-18 22:00:00,46.2,32.2,29.68,WNW,298,6.0,11.0,58,0.00,,,0.46,Wunderground v.1.15,2013-11-19 03:00:00,
2013-11-18 22:05:00,46.1,32.6,29.68,SW,235,6.0,11.0,59,0.00,,,0.46,Wunderground v.1.15,2013-11-19 03:05:00,
2013-11-18 22:10:00,45.9,32.4,29.68,WSW,253,6.0,9.0,59,0.00,,,0.46,Wunderground v.1.15,2013-11-19 03:10:00,
2013-11-18 22:15:00,45.9,31.9,29.68,WSW,249,7.0,9.0,58,0.00,,,0.46,Wunderground v.1.15,2013-11-19 03:15:00,
2013-11-18 22:20:00,45.7,32.2,29.68,WSW,238,7.0,7.0,59,0.00,,,0.46,Wunderground v.1.15,2013-11-19 03:20:00,
2013-11-18 22:25:00,45.6,31.7,29.68,WSW,238,7.0,8.0,58,0.00,,,0.46,Wunderground v.1.15,2013-11-19 03:25:00,
2013-11-18 22:30:00,45.4,31.9,29.68,WNW,291,6.0,10.0,59,0.00,,,0.46,Wunderground v.1.15,2013-11-19 03:30:00,
2013-11-18 22:35:00,45.5,31.6,29.68,West,263,7.0,10.0,58,0.00,,,0.46,Wunderground v.1.15,2013-11-19 03:35:00,
2013-11-18 22:40:00,45.2,31.7,29.68,NW,313,6.0,6.0,59,0.00,,,0.46,Wunderground v.1.15,2013-11-19 03:40:00,
2013-11-18 22:45:00,45.1,30.8,29.68,SW,234,6.0,7.0,57,0.00,,,0.46,Wunderground v.1.15,2013-11-19 03:45:00,
2013-11-18 22:50:00,45.1,30.8,29.68,West,263,7.0,10.0,57,0.00,,,0.46,Wunderground v.1.15,2013-11-19 03:50:00,
2013-11-18 22:55:00,45.0,30.7,29.68,West,263,8.0,12.0,57,0.00,,,0.46,Wunderground v.1.15,2013-11-19 03:55:00,
2013-11-18 23:00:00,45.2,30.4,29.68,WSW,250,9.0,11.0,56,0.00,,,0.46,Wunderground v.1.15,2013-11-19 04:00:00,
2013-11-18 23:05:00,45.0,30.2,29.68,NNW,328,9.0,11.0,56,0.00,,,0.46,Wunderground v.1.15,2013-11-19 04:05:00,
2013-11-18 23:10:00,44.9,30.1,29.69,SW,221,8.0,10.0,56,0.00,,,0.46,Wunderground v.1.15,2013-11-19 04:10:00,
2013-11-18 23:15:00,44.7,30.4,29.69,West,273,7.0,11.0,57,0.00,,,0.46,Wunderground v.1.15,2013-11-19 04:15:00,
2013-11-18 23:20:00,44.6,30.3,29.69,WSW,240,6.0,6.0,57,0.00,,,0.46,Wunderground v.1.15,2013-11-19 04:20:00,
2013-11-18 23:25:00,44.7,30.0,29.70,WSW,248,8.0,18.0,56,0.00,,,0.46,Wunderground v.1.15,2013-11-19 04:25:00,
2013-11-18 23:35:00,44.9,29.7,29.70,SW,227,12.0,14.0,55,0.00,,,0.46,Wunderground v.1.15,2013-11-19 04:35:00,
2013-11-18 23:40:00,44.7,30.0,29.70,West,273,13.0,13.0,56,0.00,,,0.46,Wunderground v.1.15,2013-11-19 04:40:00,
2013-11-18 23:45:00,44.5,29.8,29.70,SW,232,12.0,13.0,56,0.00,,,0.46,Wunderground v.1.15,2013-11-19 04:45:00,
2013-11-18 23:50:00,44.3,30.0,29.70,WSW,240,11.0,11.0,57,0.00,,,0.46,Wunderground v.1.15,2013-11-19 04:50:00,
2013-11-18 23:55:00,44.0,30.2,29.69,WSW,248,11.0,13.0,58,0.00,,,0.46,Wunderground v.1.15,2013-11-19 04:55:00,